H1 CPF 2 NER 2023 4 13 9 103 01 glonass143 H2 2007501 9143 46805 2023 4 13 0 0 0 2023 4 16 23 45 0 900 1 1 0 0 0 1 H9 10 0 60047 0.00000 0 21659711.386 13427965.289 1287061.056 10 0 60047 900.00000 0 21419105.508 13128759.277 4473100.892 10 0 60047 1800.00000 0 20805768.297 12687060.845 7572337.820 10 0 60047 2700.00000 0 19813974.112 12158947.092 10524644.310 10 0 60047 3600.00000 0 18451163.430 11601684.736 13272752.916 10 0 60047 4500.00000 0 16737814.037 11071140.996 15763363.436 10 0 60047 5400.00000 0 14706780.604 10619268.038 17948172.311 10 0 60047 6300.00000 0 12402129.638 10291766.980 19784804.758 10 0 60047 7200.00000 0 9877517.699 10126029.734 21237632.068 10 0 60047 8100.00000 0 7194179.568 10149445.213 22278458.885 10 0 60047 9000.00000 0 4418609.064 10378141.088 22887067.701 10 0 60047 9900.00000 0 1620027.821 10816214.128 23051610.487 10 0 60047 10800.00000 0 -1132254.033 11455481.774 22768840.157 10 0 60047 11700.00000 0 -3771476.908 12275765.957 22044177.384 10 0 60047 12600.00000 0 -6235962.069 13245698.026 20891611.243 10 0 60047 13500.00000 0 -8471429.158 14324011.919 19333435.066 10 0 60047 14400.00000 0 -10433005.530 15461272.287 17399821.902 10 0 60047 15300.00000 0 -12086844.485 16601965.896 15128246.931 10 0 60047 16200.00000 0 -13411285.540 17686869.196 12562767.180 10 0 60047 17100.00000 0 -14397508.832 18655592.985 9753171.643 10 0 60047 18000.00000 0 -15049656.647 19449197.211 6754017.732 10 0 60047 18900.00000 0 -15384417.460 20012765.588 3623572.395 10 0 60047 19800.00000 0 -15430090.448 20297830.969 422678.403 10 0 60047 20700.00000 0 -15225170.434 20264548.319 -2786431.859 10 0 60047 21600.00000 0 -14816513.621 19883522.613 -5941351.539 10 0 60047 22500.00000 0 -14257162.354 19137213.353 -8980719.026 10 0 60047 23400.00000 0 -13603921.695 18020855.295 -11845417.686 10 0 60047 24300.00000 0 -12914791.155 16542855.474 -14479731.492 10 0 60047 25200.00000 0 -12246361.028 14724648.787 -16832433.384 10 0 60047 26100.00000 0 -11651284.152 12600017.351 -18857784.712 10 0 60047 27000.00000 0 -11175930.534 10213901.503 -20516426.049 10 0 60047 27900.00000 0 -10858324.290 7620751.657 -21776142.089 10 0 60047 28800.00000 0 -10726450.201 4882489.497 -22612485.927 10 0 60047 29700.00000 0 -10797001.325 2066163.206 -23009250.995 10 0 60047 30600.00000 0 -11074620.360 -758605.985 -22958781.936 10 0 60047 31500.00000 0 -11551666.503 -3522280.045 -22462118.858 10 0 60047 32400.00000 0 -12208517.410 -6158053.269 -21528972.606 10 0 60047 33300.00000 0 -13014393.310 -8604384.852 -20177531.856 10 0 60047 34200.00000 0 -13928668.407 -10807310.400 -18434105.996 10 0 60047 35100.00000 0 -14902614.235 -12722437.225 -16332610.835 10 0 60047 36000.00000 0 -15881501.503 -14316541.513 -13913907.094 10 0 60047 36900.00000 0 -16806971.835 -15568702.002 -11225004.549 10 0 60047 37800.00000 0 -17619579.483 -16470924.251 -8318147.192 10 0 60047 38700.00000 0 -18261395.842 -17028230.829 -5249797.210 10 0 60047 39600.00000 0 -18678566.915 -17258215.071 -2079537.568 10 0 60047 40500.00000 0 -18823715.785 -17190078.552 1131085.331 10 0 60047 41400.00000 0 -18658088.695 -16863193.993 4319756.310 10 0 60047 42300.00000 0 -18153354.048 -16325255.211 7424599.956 10 0 60047 43200.00000 0 -17292978.306 -15630092.889 10385379.496 10 0 60047 44100.00000 0 -16073120.491 -14835248.861 13144662.693 10 0 60047 45000.00000 0 -14503007.226 -13999411.498 15648932.243 10 0 60047 45900.00000 0 -12604771.964 -13179820.399 17849619.407 10 0 60047 46800.00000 0 -10412764.328 -12429749.569 19704041.297 10 0 60047 47700.00000 0 -7972357.555 -11796174.795 21176224.151 10 0 60047 48600.00000 0 -5338302.714 -11317723.003 22237597.272 10 0 60047 49500.00000 0 -2572697.046 -11022989.441 22867544.767 10 0 60047 50400.00000 0 257350.303 -10929293.174 23053804.851 10 0 60047 51300.00000 0 3082259.516 -11041923.014 22792709.265 10 0 60047 52200.00000 0 5832624.108 -11353905.707 22089258.214 10 0 60047 53100.00000 0 8441849.122 -11846306.377 20957029.099 10 0 60047 54000.00000 0 10848675.122 -12489049.188 19417920.328 10 0 60047 54900.00000 0 12999484.020 -13242224.342 17501734.415 10 0 60047 55800.00000 0 14850291.547 -14057827.192 15245607.612 10 0 60047 56700.00000 0 16368343.959 -14881856.911 12693296.226 10 0 60047 57600.00000 0 17533252.727 -15656686.800 9894332.659 10 0 60047 58500.00000 0 18337620.111 -16323606.553 6903066.926 10 0 60047 59400.00000 0 18787129.679 -16825429.111 3777611.912 10 0 60047 60300.00000 0 18900098.319 -17109051.645 578712.769 10 0 60047 61200.00000 0 18706508.958 -17127861.769 -2631437.306 10 0 60047 62100.00000 0 18246565.276 -16843886.312 -5790411.364 10 0 60047 63000.00000 0 17568829.969 -16229590.731 -8836768.783 10 0 60047 63900.00000 0 16728025.924 -15269251.915 -11711256.550 10 0 60047 64800.00000 0 15782593.905 -13959845.171 -14357967.594 10 0 60047 65700.00000 0 14792110.705 -12311406.822 -16725432.967 10 0 60047 66600.00000 0 13814677.503 -10346856.054 -18767626.086 10 0 60047 67500.00000 0 12904389.215 -8101282.550 -20444859.269 10 0 60047 68400.00000 0 12108991.942 -5620728.943 -21724555.101 10 0 60047 69300.00000 0 11467827.434 -2960518.400 -22581877.833 10 0 60047 70200.00000 0 11010151.062 -183196.583 -23000212.915 10 0 60047 71100.00000 0 10753893.816 2643826.723 -22971485.813 10 0 60047 72000.00000 0 10704919.978 5450838.592 -22496314.390 10 0 60047 72900.00000 0 10856811.167 8168480.542 -21583992.356 10 0 60047 73800.00000 0 11191185.220 10730392.869 -20252304.406 10 0 60047 74700.00000 0 11678535.934 13075736.410 -18527176.890 10 0 60047 75600.00000 0 12279557.775 15151487.723 -16442170.895 10 0 60047 76500.00000 0 12946899.340 16914413.035 -14037827.568 10 0 60047 77400.00000 0 13627271.303 18332639.751 -11360878.413 10 0 60047 78300.00000 0 14263819.663 19386761.114 -8463335.827 10 0 60047 79200.00000 0 14798663.967 20070429.055 -5401481.545 10 0 60047 80100.00000 0 15175493.154 20390411.715 -2234772.738 10 0 60047 81000.00000 0 15342109.247 20366114.485 975312.890 10 0 60047 81900.00000 0 15252811.320 20028585.881 4166470.409 10 0 60047 82800.00000 0 14870518.870 19419051.125 7276776.015 10 0 60047 83700.00000 0 14168544.724 18587036.027 10245886.828 10 0 60047 84600.00000 0 13131942.383 17588160.772 13016208.888 10 0 60047 85500.00000 0 11758370.578 16481696.923 15534010.704 10 0 60048 0.00000 0 10058438.188 15327990.680 17750460.897 10 0 60048 900.00000 0 8055513.272 14185860.076 19622571.364 10 0 60048 1800.00000 0 5785005.540 13110076.789 21114025.288 10 0 60048 2700.00000 0 3293148.049 12149035.810 22195878.530 10 0 60048 3600.00000 0 635329.816 11342711.863 22847118.344 10 0 60048 4500.00000 0 -2125953.445 10720987.124 23055070.300 10 0 60048 5400.00000 0 -4923446.595 10302420.101 22815645.618 10 0 60048 6300.00000 0 -7687684.225 10093506.953 22133424.162 10 0 60048 7200.00000 0 -10349637.179 10088466.162 21021571.248 10 0 60048 8100.00000 0 -12843347.686 10269555.630 19501589.401 10 0 60048 9000.00000 0 -15108444.647 10607909.162 17602909.122 10 0 60048 9900.00000 0 -17092435.147 11064857.487 15362325.782 10 0 60048 10800.00000 0 -18752677.330 11593678.634 12823292.642 10 0 60048 11700.00000 0 -20057952.666 12141704.214 10035082.895 10 0 60048 12600.00000 0 -20989572.070 12652692.927 7051836.375 10 0 60048 13500.00000 0 -21541969.681 13069371.012 3931509.031 10 0 60048 14400.00000 0 -21722759.503 13336031.909 734745.496 10 0 60048 15300.00000 0 -21552252.652 13401084.583 -2476303.079 10 0 60048 16200.00000 0 -21062455.864 13219441.792 -5639192.465 10 0 60048 17100.00000 0 -20295593.806 12754646.174 -8692405.761 10 0 60048 18000.00000 0 -19302218.089 11980642.998 -11576556.200 10 0 60048 18900.00000 0 -18138983.378 10883123.370 -14235548.143 10 0 60048 19800.00000 0 -16866185.089 9460379.904 -16617673.024 10 0 60048 20700.00000 0 -15545163.171 7723637.580 -18676618.338 10 0 60048 21600.00000 0 -14235681.946 5696844.730 -20372369.845 10 0 60048 22500.00000 0 -12993396.717 3415931.939 -21671989.376 10 0 60048 23400.00000 0 -11867513.908 927569.033 -22550253.325 10 0 60048 24300.00000 0 -10898742.999 -1712528.594 -22990139.771 10 0 60048 25200.00000 0 -10117625.994 -4441674.311 -22983155.244 10 0 60048 26100.00000 0 -9543313.963 -7192579.338 -22529495.240 10 0 60048 27000.00000 0 -9182841.302 -9895918.510 -21638035.843 10 0 60048 27900.00000 0 -9030927.300 -12482986.570 -20326156.940 10 0 60048 28800.00000 0 -9070312.422 -14888335.045 -18619400.692 10 0 60048 29700.00000 0 -9272614.236 -17052280.678 -16550972.029 10 0 60048 30600.00000 0 -9599666.145 -18923181.718 -14161090.860 10 0 60048 31500.00000 0 -10005281.745 -20459388.016 -11496208.560 10 0 60048 32400.00000 0 -10437369.821 -21630784.454 -8608103.943 10 0 60048 33300.00000 0 -10840310.217 -22419864.238 -5552876.214 10 0 60048 34200.00000 0 -11157489.804 -22822288.138 -2389854.598 10 0 60048 35100.00000 0 -11333891.092 -22846907.346 819554.114 10 0 60048 36000.00000 0 -11318623.796 -22515250.003 4013057.529 10 0 60048 36900.00000 0 -11067292.096 -21860493.948 7128685.798 10 0 60048 37800.00000 0 -10544097.317 -20925969.690 10105992.370 10 0 60048 38700.00000 0 -9723586.921 -19763257.165 12887224.013 10 0 60048 39600.00000 0 -8591975.614 -18429956.761 15418437.492 10 0 60048 40500.00000 0 -7147982.355 -16987228.438 17650541.503 10 0 60048 41400.00000 0 -5403147.300 -15497202.223 19540244.109 10 0 60048 42300.00000 0 -3381614.394 -14020368.503 21050887.786 10 0 60048 43200.00000 0 -1119387.568 -12613057.027 22153156.565 10 0 60048 44100.00000 0 1336909.795 -11325109.650 22825642.097 10 0 60048 45000.00000 0 3931721.822 -10197843.612 23055258.186 10 0 60048 45900.00000 0 6602624.856 -9262389.914 22837496.022 10 0 60048 46800.00000 0 9282685.576 -8538475.772 22176515.264 10 0 60048 47700.00000 0 11903015.920 -8033701.633 21085068.944 10 0 60048 48600.00000 0 14395419.927 -7743342.764 19584263.188 10 0 60048 49500.00000 0 16695023.531 -7650683.542 17703155.678 10 0 60048 50400.00000 0 18742778.631 -7727870.427 15478199.804 10 0 60048 51300.00000 0 20487737.698 -7937247.791 12952544.387 10 0 60048 52200.00000 0 21889004.272 -8233120.430 10175201.718 10 0 60048 53100.00000 0 22917277.917 -8563868.446 7200099.425 10 0 60048 54000.00000 0 23555928.892 -8874325.028 4085034.210 10 0 60048 54900.00000 0 23801557.349 -9108316.278 890547.619 10 0 60048 55800.00000 0 23664013.502 -9211255.040 -2321254.013 10 0 60048 56700.00000 0 23165877.888 -9132678.083 -5487912.038 10 0 60048 57600.00000 0 22341423.766 -8828618.216 -8547836.146 10 0 60048 58500.00000 0 21235105.649 -8263709.708 -11441508.594 10 0 60048 59400.00000 0 19899638.080 -7412936.712 -14112647.800 10 0 60048 60300.00000 0 18393746.116 -6262949.456 -16509307.997 10 0 60048 61200.00000 0 16779682.819 -4812891.408 -18584892.963 10 0 60048 62100.00000 0 15120618.720 -3074701.360 -20299063.861 10 0 60048 63000.00000 0 13478013.368 -1072876.598 -21618523.492 10 0 60048 63900.00000 0 11909079.603 1156293.864 -22517661.861 10 0 60048 64800.00000 0 10464446.858 3565994.744 -22979050.870 10 0 60048 65700.00000 0 9186121.156 6100596.548 -22993779.016 10 0 60048 66600.00000 0 8105826.712 8697743.359 -22561620.017 10 0 60048 67500.00000 0 7243797.763 11290729.979 -21691032.605 10 0 60048 68400.00000 0 6608070.229 13811069.938 -20398991.788 10 0 60048 69300.00000 0 6194301.722 16191147.989 -18710655.134 10 0 60048 70200.00000 0 5986126.256 18366847.144 -16658870.659 10 0 60048 71100.00000 0 5956027.507 20280041.425 -14283535.894 10 0 60048 72000.00000 0 6066692.809 21880850.955 -11630820.588 10 0 60048 72900.00000 0 6272789.792 23129565.957 -8752268.076 10 0 60048 73800.00000 0 6523089.929 23998159.985 -5703792.777 10 0 60048 74700.00000 0 6762848.599 24471329.845 -2544593.362 10 0 60048 75600.00000 0 6936340.570 24547019.455 663997.170 10 0 60048 76500.00000 0 6989443.253 24236406.516 3859702.049 10 0 60048 77400.00000 0 6872158.158 23563353.331 6980508.591 10 0 60048 78300.00000 0 6540963.641 22563345.529 9965869.783 10 0 60048 79200.00000 0 5960899.229 21281963.832 12757876.282 10 0 60048 80100.00000 0 5107293.137 19772953.417 15302376.126 10 0 60048 81000.00000 0 3967059.697 18095972.077 17550020.720 10 0 60048 81900.00000 0 2539511.379 16314111.523 19457217.260 10 0 60048 82800.00000 0 836650.475 14491295.436 20986969.584 10 0 60048 83700.00000 0 -1117072.915 12689662.679 22109591.821 10 0 60048 84600.00000 0 -3285527.708 10967044.446 22803281.564 10 0 60048 85500.00000 0 -5622162.926 9374640.044 23054541.929 10 0 60049 0.00000 0 -8071711.748 7954987.701 22858444.711 10 0 60049 900.00000 0 -10572270.496 6740313.635 22218729.368 10 0 60049 1800.00000 0 -13057664.214 5751329.507 21147736.112 10 0 60049 2700.00000 0 -15460006.137 4996525.406 19666173.556 10 0 60049 3600.00000 0 -17712342.476 4471989.402 17802724.887 10 0 60049 4500.00000 0 -19751274.479 4161760.125 15593499.337 10 0 60049 5400.00000 0 -21519448.881 4038697.441 13081338.680 10 0 60049 6300.00000 0 -22967813.012 4065834.418 10314991.375 10 0 60049 7200.00000 0 -24057540.306 4198153.459 7348169.731 10 0 60049 8100.00000 0 -24761545.392 4384711.352 4238507.980 10 0 60049 9000.00000 0 -25065524.889 4571023.043 1046441.364 10 0 60049 9900.00000 0 -24968479.860 4701602.699 -2165971.734 10 0 60049 10800.00000 0 -24482697.656 4722553.685 -5336261.282 10 0 60049 11700.00000 0 -23633193.730 4584096.802 -8402766.439 10 0 60049 12600.00000 0 -22456636.909 4242928.567 -11305841.197 10 0 60049 13500.00000 0 -20999803.528 3664308.512 -13989020.539 10 0 60049 14400.00000 0 -19317625.774 2823785.922 -16400123.741 10 0 60049 15300.00000 0 -17470916.754 1708491.824 -18492272.790 10 0 60049 16200.00000 0 -15523868.272 317940.547 -20224805.799 10 0 60049 17100.00000 0 -13541426.706 -1335694.046 -21564067.643 10 0 60049 18000.00000 0 -11586657.239 -3227840.254 -22484062.569 10 0 60049 18900.00000 0 -9718206.819 -5322318.084 -22966956.457 10 0 60049 19800.00000 0 -7987971.754 -7572624.429 -23003419.462 10 0 60049 20700.00000 0 -6439066.949 -9923660.797 -22592802.789 10 0 60049 21600.00000 0 -5104180.864 -12313832.095 -21743146.702 10 0 60049 22500.00000 0 -4004383.886 -14677429.448 -20471019.892 10 0 60049 23400.00000 0 -3148438.738 -16947198.180 -18801193.620 10 0 60049 24300.00000 0 -2532640.363 -19056984.339 -16766157.064 10 0 60049 25200.00000 0 -2141190.570 -20944349.827 -14405483.312 10 0 60049 26100.00000 0 -1947090.282 -22553047.428 -11765058.312 10 0 60049 27000.00000 0 -1913510.509 -23835252.801 -8896187.708 10 0 60049 27900.00000 0 -1995583.136 -24753460.620 -5854598.909 10 0 60049 28800.00000 0 -2142534.953 -25281965.994 -2699357.836 10 0 60049 29700.00000 0 -2300073.992 -25407869.662 508278.486 10 0 60049 30600.00000 0 -2412926.666 -25131565.379 3706051.069 10 0 60049 31500.00000 0 -2427417.931 -24466689.610 6831906.529 10 0 60049 32400.00000 0 -2293984.974 -23439536.129 9825199.529 10 0 60049 33300.00000 0 -1969517.872 -22087960.532 12627866.714 10 0 60049 34200.00000 0 -1419428.017 -20459820.881 15185549.432 10 0 60049 35100.00000 0 -619356.677 -18611019.968 17448643.719 10 0 60049 36000.00000 0 443548.801 -16603231.082 19373257.641 10 0 60049 36900.00000 0 1769845.489 -14501402.158 20922057.877 10 0 60049 37800.00000 0 3347526.122 -12371142.079 22064989.840 10 0 60049 38700.00000 0 5152283.444 -10276097.579 22779857.888 10 0 60049 39600.00000 0 7148297.913 -8275429.379 23052754.927 10 0 60049 40500.00000 0 9289517.312 -6421491.867 22878333.382 10 0 60049 41400.00000 0 11521376.418 -4757812.130 22259912.354 10 0 60049 42300.00000 0 13782886.571 -3317451.743 21209418.702 10 0 60049 43200.00000 0 16009009.481 -2121818.857 19747162.716 10 0 60049 44100.00000 0 18133217.578 -1179979.495 17901452.033 10 0 60049 45000.00000 0 20090135.110 -488496.305 15708050.443 10 0 60049 45900.00000 0 21818150.376 -31801.059 13209491.179 10 0 60049 46800.00000 0 23261890.310 216915.170 10454257.150 10 0 60049 47700.00000 0 24374453.809 294331.955 7495843.399 10 0 60049 48600.00000 0 25119309.990 245207.729 4391719.527 10 0 60049 49500.00000 0 25471781.262 120242.437 1202212.121 10 0 60049 50400.00000 0 25420048.326 -26314.429 -2010670.901 10 0 60049 51300.00000 0 24965634.307 -139208.381 -5184450.698 10 0 60049 52200.00000 0 24123347.136 -164768.417 -8257398.477 10 0 60049 53100.00000 0 22920682.255 -53428.705 -11169742.450 10 0 60049 54000.00000 0 21396710.648 237924.432 -13864836.480 10 0 60049 54900.00000 0 19600498.911 743880.750 -16290267.010 10 0 60049 55800.00000 0 17589127.950 1488798.326 -18398876.126 10 0 60049 56700.00000 0 15425393.713 2485533.011 -20149680.571 10 0 60049 57600.00000 0 13175286.547 3734659.753 -21508668.768 10 0 60049 58500.00000 0 10905354.974 5224219.469 -22449460.483 10 0 60049 59400.00000 0 8680064.102 6930002.998 -22953816.659 10 0 60049 60300.00000 0 6559258.853 8816360.945 -23011989.963 10 0 60049 61200.00000 0 4595837.448 10837506.175 -22622909.700 10 0 60049 62100.00000 0 2833731.524 12939255.025 -21794197.981 10 0 60049 63000.00000 0 1306276.105 15061134.984 -20542017.186 10 0 60049 63900.00000 0 35036.299 17138771.207 -18890751.924 10 0 60049 64800.00000 0 -970861.747 19106452.581 -16872531.831 10 0 60049 65700.00000 0 -1714869.158 20899770.501 -14526604.472 10 0 60049 66600.00000 0 -2212617.739 22458220.346 -11898570.548 10 0 60049 67500.00000 0 -2491006.673 23727657.186 -9039496.200 10 0 60049 68400.00000 0 -2586812.383 24662503.205 -6004919.667 10 0 60049 69300.00000 0 -2544881.411 25227614.666 -2853771.647 10 0 60049 70200.00000 0 -2415983.622 25399730.464 352769.541 10 0 60049 71100.00000 0 -2254417.312 25168441.833 3552465.624 10 0 60049 72000.00000 0 -2115468.087 24536642.809 6683225.588 10 0 60049 72900.00000 0 -2052829.449 23520442.857 9684308.883 10 0 60049 73800.00000 0 -2116094.495 22148545.516 12497501.233 10 0 60049 74700.00000 0 -2348424.969 20461119.263 15068240.290 10 0 60049 75600.00000 0 -2784496.336 18508207.858 17346669.569 10 0 60049 76500.00000 0 -3448805.839 16347746.490 19288600.628 10 0 60049 77400.00000 0 -4354415.194 14043266.286 20856365.367 10 0 60049 78300.00000 0 -5502181.423 11661382.441 22019542.526 10 0 60049 79200.00000 0 -6880508.902 9269169.936 22755544.909 10 0 60049 80100.00000 0 -8465634.094 6931535.340 23050056.452 10 0 60049 81000.00000 0 -10222432.276 4708693.117 22897310.992 10 0 60049 81900.00000 0 -12105713.934 2653850.440 22300207.431 10 0 60049 82800.00000 0 -14061958.130 811195.943 21270258.880 10 0 60049 83700.00000 0 -16031411.872 -785724.794 19827376.311 10 0 60049 84600.00000 0 -17950469.119 -2115180.131 17999490.222 10 0 60049 85500.00000 0 -19754231.098 -3167921.442 15822016.826 10 0 60050 0.00000 0 -21379141.507 -3947322.977 13337178.427 10 0 60050 900.00000 0 -22765587.604 -4468987.552 10593188.937 10 0 60050 1800.00000 0 -23860356.104 -4759834.159 7643323.062 10 0 60050 2700.00000 0 -24618843.498 -4856707.739 4544882.334 10 0 60050 3600.00000 0 -25006925.235 -4804569.231 1358081.183 10 0 60050 4500.00000 0 -25002405.368 -4654343.412 -1855126.409 10 0 60050 5400.00000 0 -24595984.721 -4460516.246 -5032256.171 10 0 60050 6300.00000 0 -23791706.063 -4278584.296 -8111514.594 10 0 60050 7200.00000 0 -22606856.878 -4162465.221 -11033007.157 10 0 60050 8100.00000 0 -21071333.296 -4161980.076 -13739909.423 10 0 60050 9000.00000 0 -19226491.619 -4320515.086 -16179577.524 10 0 60050 9900.00000 0 -17123535.521 -4672962.864 -18304575.797 10 0 60050 10800.00000 0 -14821506.603 -5244031.099 -20073601.316 10 0 60050 11700.00000 0 -12384962.507 -6046990.986 -21452287.225 10 0 60050 12600.00000 0 -9881439.839 -7082918.981 -22413869.406 10 0 60050 13500.00000 0 -7378807.845 -8340464.457 -22939703.856 10 0 60050 14400.00000 0 -4942623.063 -9796153.685 -23019625.167 10 0 60050 15300.00000 0 -2633594.902 -11415217.888 -22652139.621 10 0 60050 16200.00000 0 -505267.073 -13152911.105 -21844449.604 10 0 60050 17100.00000 0 1397989.411 -14956263.116 -20612309.225 10 0 60050 18000.00000 0 3042589.159 -16766194.348 -18979714.198 10 0 60050 18900.00000 0 4406885.329 -18519904.564 -16978432.158 10 0 60050 19800.00000 0 5481815.954 -20153435.627 -14647382.538 10 0 60050 20700.00000 0 6271018.248 -21604301.193 -12031878.090 10 0 60050 21600.00000 0 6790407.775 -22814073.398 -9182742.720 10 0 60050 22500.00000 0 7067241.754 -23730818.220 -6155322.764 10 0 60050 23400.00000 0 7138707.382 -24311277.503 -3008411.012 10 0 60050 24300.00000 0 7050095.964 -24522706.191 196895.533 10 0 60050 25200.00000 0 6852640.992 -24344287.732 3398381.818 10 0 60050 26100.00000 0 6601112.293 -23768068.335 6533921.567 10 0 60050 27000.00000 0 6351268.583 -22799370.897 9542681.231 10 0 60050 27900.00000 0 6157276.482 -21456671.259 12366297.639 10 0 60050 28800.00000 0 6069205.315 -19770941.899 14950006.556 10 0 60050 29700.00000 0 6130703.642 -17784490.374 17243700.509 10 0 60050 30600.00000 0 6376955.666 -15549340.750 19202895.802 10 0 60050 31500.00000 0 6833003.811 -13125225.145 20789590.445 10 0 60050 32400.00000 0 7512508.333 -10577268.538 21972997.036 10 0 60050 33300.00000 0 8416996.591 -7973462.405 22730136.971 10 0 60050 34200.00000 0 9535634.178 -5382031.431 23046284.977 10 0 60050 35100.00000 0 10845528.390 -2868801.726 22915255.712 10 0 60050 36000.00000 0 12312552.479 -494678.835 22339526.970 10 0 60050 36900.00000 0 13892657.424 1686660.665 21330196.935 10 0 60050 37800.00000 0 15533617.619 3630769.001 19906775.859 10 0 60050 38700.00000 0 17177138.730 5304036.169 18096815.531 10 0 60050 39600.00000 0 18761240.549 6684841.710 15935382.868 10 0 60050 40500.00000 0 20222815.897 7764201.924 13464386.941 10 0 60050 41400.00000 0 21500258.832 8545886.039 10731771.611 10 0 60050 42300.00000 0 22536052.013 9045996.985 7790588.779 10 0 60050 43200.00000 0 23279204.344 9292034.914 4697969.759 10 0 60050 44100.00000 0 23687435.860 9321483.485 1514014.584 10 0 60050 45000.00000 0 23729017.149 9179979.130 -1699378.978 10 0 60050 45900.00000 0 23384184.905 8919141.423 -4879723.507 10 0 60050 46800.00000 0 22646073.027 8594157.099 -7965162.994 10 0 60050 47700.00000 0 21521119.075 8261220.941 -10895682.268 10 0 60050 48600.00000 0 20028928.174 7974942.810 -13614280.493 10 0 60050 49500.00000 0 18201599.385 7785831.599 -16068085.167 10 0 60050 50400.00000 0 16082542.387 7737963.503 -18209384.343 10 0 60050 51300.00000 0 13724833.782 7866934.026 -19996556.671 10 0 60050 52200.00000 0 11189181.672 8198181.011 -21394881.092 10 0 60050 53100.00000 0 8541583.524 8745750.021 -22377210.514 10 0 60050 54000.00000 0 5850774.990 9511554.610 -22924496.743 10 0 60050 54900.00000 0 3185575.816 10485163.013 -23026156.884 10 0 60050 55800.00000 0 612243.114 11644120.505 -22680274.570 10 0 60050 56700.00000 0 -1808058.432 12954794.163 -21893632.578 10 0 60050 57600.00000 0 -4021564.880 14373704.783 -20681576.566 10 0 60050 58500.00000 0 -5983904.781 15849290.248 -19067712.832 10 0 60050 59400.00000 0 -7661692.636 17324026.559 -17083446.145 10 0 60050 60300.00000 0 -9033659.003 18736817.703 -14767366.608 10 0 60050 61200.00000 0 -10091271.622 20025554.175 -12164497.512 10 0 60050 62100.00000 0 -10838823.187 21129732.861 -9325418.731 10 0 60050 63000.00000 0 -11292983.748 21993028.290 -6305282.668 10 0 60050 63900.00000 0 -11481838.079 22565707.243 -3162741.964 10 0 60050 64800.00000 0 -11443449.990 22806785.206 41190.102 10 0 60050 65700.00000 0 -11224015.297 22685833.961 3244324.239 10 0 60050 66600.00000 0 -10875682.412 22184364.279 6384501.554 10 0 60050 67500.00000 0 -10454133.323 21296725.460 9400798.201 10 0 60050 68400.00000 0 -10016027.663 20030483.790 12234704.834 10 0 60050 69300.00000 0 -9616418.126 18406263.799 14831258.023 10 0 60050 70200.00000 0 -9306246.420 16457058.589 17140101.931 10 0 60050 71100.00000 0 -9130025.433 14227037.595 19116460.084 10 0 60050 72000.00000 0 -9123805.219 11769900.976 20721998.902 10 0 60050 72900.00000 0 -9313508.442 9146848.439 21925566.889 10 0 60050 73800.00000 0 -9713705.384 6424246.167 22703795.764 10 0 60050 74700.00000 0 -10326880.243 3671087.836 23041552.403 10 0 60050 75600.00000 0 -11143220.024 956354.087 22932233.202 10 0 60050 76500.00000 0 -12140935.597 -1653621.058 22377895.272 10 0 60050 77400.00000 0 -13287102.371 -4097668.592 21389221.751 10 0 60050 78300.00000 0 -14538986.398 -6322084.208 19985321.497 10 0 60050 79200.00000 0 -15845801.422 -8282614.609 18193366.343 10 0 60050 80100.00000 0 -17150824.212 -9946048.587 16048072.131 10 0 60050 81000.00000 0 -18393780.265 -11291347.198 13591032.663 10 0 60050 81900.00000 0 -19513400.324 -12310266.454 10869918.617 10 0 60050 82800.00000 0 -20450040.470 -13007446.900 7937556.279 10 0 60050 83700.00000 0 -21148255.468 -13399966.837 4850903.484 10 0 60050 84600.00000 0 -21559216.574 -13516378.462 1669942.465 10 0 60050 85500.00000 0 -21642871.120 -13395268.072 -1543488.706 99